EA7AZH-5 Weather Reports


time (UTC)temp
C
wind
direction
speed
KPH
gust
KPH
rain 1hr
cm
rain 24hr
cm
rain mn
cm
humidity
%
barometer
mb
20260504050353 20 0.0 0.0 0.00 0.00 0.00 53 1011.5
20260504045348 21 0.0 0.0 0.00 0.00 0.00 52 1011.6
20260504044348 21 0.0 0.0 0.00 0.00 0.00 52 1011.5
20260504043348 21 0.0 0.0 0.00 0.00 0.00 50 1011.4
20260504042353 21 0.0 0.0 0.00 0.00 0.00 52 1011.4
20260504041348 21 0.0 0.0 0.00 0.00 0.00 52 1011.3
20260504040348 21 0.0 0.0 0.00 0.00 0.00 53 1011.3
20260504035348 20 0.0 0.0 0.00 0.00 0.00 54 1011.3
20260504034348 20 0.0 0.0 0.00 0.00 0.00 54 1011.3
20260504033348 20 0.0 0.0 0.00 0.00 0.00 54 1011.2
20260504032348 20 0.0 0.0 0.00 0.00 0.00 55 1011.4
20260504031348 21 0.0 0.0 0.00 0.00 0.00 53 1011.4
20260504030348 21 0.0 0.0 0.00 0.00 0.00 54 1011.4
20260504025348 21 0.0 0.0 0.00 0.00 0.00 55 1011.5
20260504024353 21 0.0 0.0 0.00 0.00 0.00 56 1011.6
20260504023348 21 0.0 0.0 0.00 0.00 0.00 56 1011.5
20260504022348 21 0.0 0.0 0.00 0.00 0.00 56 1011.5
20260504021347 21 0.0 0.0 0.00 0.00 0.00 56 1011.6
20260504020348 21 0.0 0.0 0.00 0.00 0.00 57 1011.6
20260504015348 21 0.0 0.0 0.00 0.00 0.00 57 1011.6
20260504014348 21 0.0 0.0 0.00 0.00 0.00 56 1011.6
20260504013348 21 0.0 0.0 0.00 0.00 0.00 57 1011.6
20260504012347 21 0.0 0.0 0.00 0.00 0.00 58 1011.8
20260504011353 22 0.0 0.0 0.00 0.00 0.00 57 1011.9
20260504010347 21 0.0 0.0 0.00 0.00 0.00 59 1012.0
20260504005348 21 0.0 0.0 0.00 0.00 0.00 59 1012.1
20260504004347 21 0.0 0.0 0.00 0.00 0.00 59 1012.1
20260504003347 22 0.0 0.0 0.00 0.00 0.00 58 1012.2
20260504002347 22 0.0 0.0 0.00 0.00 0.00 58 1012.2
20260504001352 22 0.0 0.0 0.00 0.00 0.00 57 1012.2
20260504000348 22 0.0 0.0 0.00 0.00 0.00 57 1012.3
20260503235347 22 0.0 0.0 0.00 0.00 0.00 57 1012.4
20260503234348 22 0.0 0.0 0.00 0.00 0.00 58 1012.4
20260503233347 22 0.0 0.0 0.00 0.00 0.00 57 1012.5
20260503232347 22 0.0 0.0 0.00 0.00 0.00 57 1012.5
20260503231347 22 0.0 0.0 0.00 0.00 0.00 56 1012.5
20260503230347 22 0.0 0.0 0.00 0.00 0.00 57 1012.5
20260503225347 22 0.0 0.0 0.00 0.00 0.00 58 1012.6
20260503224347 22 0.0 0.0 0.00 0.00 0.00 58 1012.6
20260503223347 22 0.0 0.0 0.00 0.00 0.00 57 1012.6
20260503222347 22 0.0 0.0 0.00 0.00 0.00 57 1012.6
20260503221347 22 0.0 0.0 0.00 0.00 0.00 57 1012.6
20260503220347 22 0.0 0.0 0.00 0.00 0.00 56 1012.7
20260503215347 22 0.0 0.0 0.00 0.00 0.00 56 1012.7
20260503214347 22 0.0 0.0 0.00 0.00 0.00 56 1012.7
20260503213347 22 0.0 0.0 0.00 0.00 0.00 57 1012.6
20260503212347 22 0.0 0.0 0.00 0.00 0.00 58 1012.7
20260503211347 23 0.0 0.0 0.00 0.00 0.00 57 1012.6
20260503210347 22 0.0 0.0 0.00 0.00 0.00 58 1012.4
20260503205347 23 0.0 0.0 0.00 0.00 0.00 59 1012.4
20260503204346 22 0.0 0.0 0.00 0.00 0.00 59 1012.4
20260503203347 22 0.0 0.0 0.00 0.00 0.00 60 1012.2
20260503202346 22 0.0 0.0 0.00 0.00 0.00 61 1012.2
20260503201346 21 0.0 0.0 0.00 0.00 0.00 61 1012.0
20260503200347 22 0.0 0.0 0.00 0.00 0.00 61 1011.9
20260503195347 22 0.0 0.0 0.00 0.00 0.00 61 1011.7
20260503194353 22 0.0 0.0 0.00 0.00 0.00 61 1011.7
20260503193346 22 0.0 0.0 0.00 0.00 0.00 60 1011.6
20260503192348 22 0.0 0.0 0.00 0.00 0.00 58 1011.6
20260503191346 24 0.0 0.0 0.00 0.00 0.00 52 1011.4
20260503190346 23 0.0 0.0 0.00 0.00 0.00 50 1011.4
20260503185347 24 0.0 0.0 0.00 0.00 0.00 51 1011.1
20260503184347 23 0.0 0.0 0.00 0.00 0.00 53 1011.0
20260503183347 25 0.0 0.0 0.00 0.00 0.00 51 1011.0
20260503182346 25 0.0 0.0 0.00 0.00 0.00 50 1011.1
20260503181346 25 0.0 0.0 0.00 0.00 0.00 50 1011.0
20260503180346 25 0.0 0.0 0.00 0.00 0.00 49 1011.2
20260503175346 24 0.0 0.0 0.00 0.00 0.00 49 1011.4
20260503174346 25 0.0 0.0 0.00 0.00 0.00 50 1011.5
20260503173346 25 0.0 0.0 0.00 0.00 0.00 48 1011.4
20260503172346 25 0.0 0.0 0.00 0.00 0.00 50 1011.6
20260503171346 25 0.0 0.0 0.00 0.00 0.00 50 1011.6
20260503170346 25 0.0 0.0 0.00 0.00 0.00 49 1011.7
20260503150346 25 0.0 0.0 0.00 0.00 0.00 51 1012.5
20260503131345 23 0.0 0.0 0.00 0.00 0.00 55 1013.8
20260503130351 23 0.0 0.0 0.00 0.00 0.00 55 1013.8
20260503110345 25 0.0 0.0 0.00 0.00 0.00 50 1014.7
20260503090345 23 0.0 0.0 0.00 0.00 0.00 54 1014.7
20260503081345 23 0.0 0.0 0.00 0.00 0.00 56 1014.5
20260503080345 23 0.0 0.0 0.00 0.00 0.00 57 1014.6
20260503072349 22 0.0 0.0 0.00 0.00 0.00 59 1014.4
20260503071344 22 0.0 0.0 0.00 0.00 0.00 59 1014.2
20260503070344 23 0.0 0.0 0.00 0.00 0.00 57 1014.2
20260503054349 22 0.0 0.0 0.00 0.00 0.00 56 1013.4
20260503053344 22 0.0 0.0 0.00 0.00 0.00 56 1013.2
20260503052344 22 0.0 0.0 0.00 0.00 0.00 56 1013.3